Location: Unspecified
(0.0000°N, 0.0000°E)
Time: 01:01:25
(UTC+00:00)

Vanguard 3 - Visible Passes

Search period start: 26 May 2019 00:00
Search period end: 05 June 2019 00:00
Orbit: 508 x 3263 km, 33.3° (Epoch: 25 May)

Date Brightness Start Highest point End Pass type
(mag) Time Alt. Az. Time Alt. Az. Time Alt. Az.
26 May 10.8 00:43:54 10° NNW 00:54:41 26° NE 01:08:57 10° E visible
26 May 10.1 02:55:01 10° NW 03:11:38 67° NE 03:31:23 10° ESE visible
26 May 10.1 05:10:18 10° WNW 05:29:12 58° SW 05:46:40 10° SE visible
26 May 11.0 23:32:08 10° N 23:38:00 14° NNE 23:45:10 10° ENE visible
27 May 10.4 01:40:50 10° NNW 01:54:39 46° NE 02:13:07 10° ESE visible
27 May 9.9 03:53:45 10° WNW 04:11:42 81° SW 04:31:14 10° SE visible
28 May 10.6 00:27:40 10° NNW 00:38:10 29° NE 00:52:42 10° E visible
28 May 9.9 02:41:34 21° NW 02:54:25 74° NE 03:14:34 10° ESE visible
28 May 10.2 04:53:56 10° WNW 05:12:04 53° SW 05:29:55 10° SE visible
28 May 10.9 23:16:01 10° N 23:30:41 - ENE 23:16:15 10° N visible
29 May 10.0 01:35:32 49° NNE 01:37:42 51° NE 01:56:23 10° ESE visible
29 May 9.9 03:40:23 20° WNW 03:54:29 73° SW 04:14:19 10° SE visible
30 May 10.9 00:28:31 24° ENE 00:28:31 24° ENE 00:36:17 10° E visible
30 May 9.7 02:33:18 63° NW 02:37:15 82° NE 02:57:35 10° ESE visible
30 May 10.2 04:38:05 11° W 04:55:02 47° SSW 05:13:03 10° SE visible
30 May10.923:20:57E23:20:57E22:58:47Nvisible
31 May 10.2 01:25:42 46° E 01:25:42 46° E 01:39:29 10° ESE visible
31 May 9.8 03:30:27 45° W 03:37:20 66° SW 03:57:15 10° SE visible
01 Jun 11.2 00:17:43 14° E 00:17:43 14° E 00:19:43 10° E visible
01 Jun 9.7 02:22:26 76° SE 02:22:26 76° SE 02:40:27 10° SE visible
01 Jun 10.3 04:27:09 24° W 04:38:07 42° SSW 04:56:02 10° SE visible
02 Jun 10.7 01:14:07 31° ESE 01:14:07 31° ESE 01:22:25 10° ESE visible
02 Jun 9.7 03:18:49 57° SW 03:20:20 58° SSW 03:40:02 10° SE visible
02 Jun 10.7 05:24:53 10° WSW 05:39:49 27° SSW 05:54:30 10° SSE visible
03 Jun 10.2 02:10:12 49° SE 02:10:12 49° SE 02:23:08 10° SE visible
03 Jun 10.2 04:14:52 31° WSW 04:21:23 37° SSW 04:38:56 10° SSE visible
04 Jun 11.1 01:01:23 19° ESE 01:01:23 19° ESE 01:05:13 10° ESE visible
04 Jun 10.0 03:06:02 49° S 03:06:02 49° S 03:22:40 10° SE visible
04 Jun 10.8 05:10:40 12° WSW 05:23:28 25° SSW 05:37:44 10° SSE visible
